Regional Weather Roundup
Issued by NWS

Home | Current Version | Previous Version | Graphics & Text | Print | Product List | Glossary On
Versions: 1 2 3 4 5 6 7 8 9 10 11 12 13 14 15 16 17 18 19 20 21 22 23 24 25 26 27
000
ASUS45 KSLC 280710
RWRUT

UTAH REGIONAL WEATHER ROUNDUP
NATIONAL WEATHER SERVICE SALT LAKE CITY UT
100 AM MDT FRI APR 28 2017

UTZ001>011-023>025-280800-

NORTHERN UTAH

CITY           SKY/WX    TMP DP  RH WIND       PRES   REMARKS
BRIGHAM CITY   PTCLDY    38  20  49 N10       29.88R WCI  31
HILL AFB       CLOUDY    38  20  48 NW10      29.86S WCI  30
LOGAN          PTCLDY    32  25  75 E6        29.87R WCI  26
OGDEN          MOCLDY    36  22  56 NW7       29.86S WCI  30
SALT LAKE CITY MOCLDY    40  30  67 SW5       29.87S
TOOELE VALLEY  MOCLDY    36  27  69 W9        29.90S WCI  29
WENDOVER       CLEAR     40  19  43 N7G16     29.93R
HEBER CITY     CLOUDY    32  28  86 N5        29.84R WCI  27
WEST JORDAN    CLOUDY    38  37  93 N5        29.88F WCI  35

$$

UTZ011>015-024>027-280800-

CENTRAL/NORTHEAST UTAH

CITY           SKY/WX    TMP DP  RH WIND       PRES   REMARKS
PROVO AIRPORT  PTCLDY    41  23  48 NW16G26   29.88S
MOAB/CANYONLAN CLEAR     43  17  35 W13       29.77R
DELTA          PTCLDY    34  32  93 N9        29.90S WCI  26
PRICE          PTCLDY    33  20  58 N8        29.80F WCI  26
RICHFIELD      MOCLDY    36  36 100 CALM      29.90F
ROOSEVELT      CLEAR     34  19  55 SW10      29.78F WCI  26
VERNAL         CLOUDY    36  17  46 CALM      29.77R

$$

UTZ013>016-019>022-027-280800-

SOUTHERN UTAH

CITY           SKY/WX    TMP DP  RH WIND       PRES   REMARKS
BRYCE CANYON   CLEAR     29  21  72 NW8       29.87S WCI  21
CEDAR CITY     CLEAR     32  25  75 N7        29.87R WCI  26
MILFORD        CLOUDY    41  25  53 NE10      29.89R
ST GEORGE      PTSUNNY   59  27  29 NE15G24   29.78R
HANKSVILLE     CLEAR     39  23  52 CALM      29.83R
KANAB          PTCLDY    48  23  37 N10G17    29.84R
BLANDING       CLOUDY    42  19  40 W3        29.86R

$$

REGIONAL REPORTS     COLORADO/ARIZONA

CITY           SKY/WX    TMP DP  RH WIND       PRES   REMARKS
CRAIG, CO      CLOUDY    33  22  63 SW13      29.76F WCI  24
GRAND JUNCTION MOCLDY    39  25  57 W5        29.76S
RIFLE, CO      CLOUDY    34  31  88 NE3       29.78S
MONTROSE, CO   CLOUDY    34  17  50 SE8       29.78R WCI  27
CORTEZ, CO     CLOUDY    41  24  51 CALM      29.78R
COLORADO CITY    N/A     50  23  34 W10       29.81S
PAGE, AZ       PTCLDY    56  21  25 W8        29.75R
GRAND CANYON   PTCLDY    46  15  28 VRB3      29.81F
KINGMAN, AZ    PTCLDY    56  15  20 E3        29.72S
FLAGSTAFF, AZ  CLEAR     48  20  32 W9        29.83S

$$

REGIONAL REPORTS    NEVADA/IDAHO/WYOMING

CITY           SKY/WX    TMP DP  RH WIND       PRES   REMARKS
LAS VEGAS, NV  PTCLDY    72   2   6 N17G24    29.70R
ELY, NY        CLEAR     29  17  61 NW8       29.93F WCI  21
ELKO, NV       CLOUDY    33  25  72 CALM      29.97R
POCATELLO, ID  LGT SNOW  32  30  92 SW10      29.89S FOG     WCI  24
BURLEY, ID     CLEAR     34  24  67 SW18      29.88R WCI  23
EVANSTON, WY   MOCLDY    25  23  92 W13       29.82S WCI  14
ROCK SPRINGS,  CLOUDY    30  22  72 W20       29.75F WCI  17

$$




USA.gov is the U.S. government's official web portal to all federal, state and local government web resources and services.